Track STARLINK-1456 now! 10-day predictions STARLINK-1456 is classified as:
1 45673U 20035S 21105.62374316 .00001053 00000-0 89543-4 0 9998 2 45673 53.0568 178.0308 0001421 124.9470 235.1653 15.06403185 49085